Вернуться в каталог

FENGYUN 1C DEB

АктивенPO
NORAD 30447·DEBRIS·🇨🇳 China

Запущен May 10, 1999 с Taiyuan Satellite Launch Center

Loading…

Ближайшие Пролёты (ближайшие 24 часа)

TLE

СвежийSource: Space-Track

Эпоха: Sep 13, 2026, 06:22 UTC

1 30447U 99025AFJ 26256.26545086  .00005200  00000-0  10369-2 0  9998
2 30447  98.9552 144.8015 0052332 276.9086 208.2849 14.61599590 20918

Отслеживайте FENGYUN 1C DEB в реальном времени с AllMySat

Download on the App Store